NUSTAR

Last updated on Sat Dec 13 2025 00:03:35 GMT+0000 (Coordinated Universal Time)

1 38358U 12031A 25346.33349537 .00015056 00000+0 93439-3 0 9998 2 38358 6.0277 353.3695 0009205 215.5822 263.0473 15.06396309 1307
UTC large
Height (km)
Speed (km/s)
/
Latitude / Longitude
Inclination (degrees)
Orbital Period (minutes)
Azimuth
Elevation
Range (km)
Doppler Factor

Next 0 passes for location: London (51.5072 / 0.1276)

Sorry there are no passes over London.